Sigfox identifier Datetime Temperature Humidity SNR
002F1FA1 2019-06-03 16:47:17 19.8 43 18.5
002F1FA1 2019-06-03 15:38:50 18.9 46 18.5
002F1FA1 2019-06-03 14:30:26 17.8 51 18.5
002F1FA1 2019-06-03 13:21:53 15.6 54 18.6
002F1FA1 2019-06-03 11:04:50 13.2 53 18.6
002F1FA1 2019-06-03 09:56:11 11.4 50 18.7
002F1FA1 2019-06-03 08:47:34 10.2 47 18.7
002F1FA1 2019-06-03 07:38:56 9.4 44 18.8
002F1FA1 2019-06-03 06:30:16 9.3 42 18.7
002F1FA1 2019-06-03 05:21:39 10.1 41 18.7
002F1FA1 2019-06-03 04:13:03 11.2 41 18.7
002F1FA1 2019-06-03 03:04:27 12.3 42 18.7
002F1FA1 2019-06-03 01:55:53 13.6 42 18.7
002F1FA1 2019-06-03 00:47:17 15.1 43 18.7
002F1FA1 2019-06-02 23:38:44 16.5 45 18.7
002F1FA1 2019-06-02 22:30:16 17.9 48 18.7
002F1FA1 2019-06-02 21:21:48 18.7 51 18.7
002F1FA1 2019-06-02 20:13:23 18.9 53 18.7
002F1FA1 2019-06-02 19:04:54 18.7 54 18.7
002F1FA1 2019-06-02 17:56:23 17.6 54 18.7
002F1FA1 2019-06-02 16:47:48 16.3 53 18.6
002F1FA1 2019-06-02 15:39:14 14.6 52 18.6
002F1FA1 2019-06-02 14:30:35 13.6 48 18.5
002F1FA1 2019-06-02 13:21:56 12.9 47 18.6
002F1FA1 2019-06-02 12:13:16 12.8 46 15.2
002F1FA1 2019-06-02 11:04:39 12.7 46 15.4
002F1FA1 2019-06-02 09:56:00 12.5 45 15.4
002F1FA1 2019-06-02 08:47:19 12.3 44 15.7
002F1FA1 2019-06-02 07:38:39 12.3 43 15.8
002F1FA1 2019-06-02 06:29:58 12.3 43 15.7
002F1FA1 2019-06-02 05:21:16 12.5 42 16
002F1FA1 2019-06-02 04:12:36 12.7 42 16.2
002F1FA1 2019-06-02 03:03:59 12.9 41 16.2
002F1FA1 2019-06-02 01:55:24 13.2 40 16.2
002F1FA1 2019-06-02 00:46:50 13.9 39 19.1
002F1FA1 2019-06-01 23:38:16 14.7 39 19.1
002F1FA1 2019-06-01 22:29:47 15.6 39 19.2
002F1FA1 2019-06-01 21:21:20 16.8 38 20.8
002F1FA1 2019-06-01 20:12:55 18 39 20.9
002F1FA1 2019-06-01 19:04:29 18.9 41 22
002F1FA1 2019-06-01 17:56:03 19.3 42 23
002F1FA1 2019-06-01 16:47:42 19.3 42 23.1
002F1FA1 2019-06-01 15:39:11 19.1 42 23.8
002F1FA1 2019-06-01 14:30:43 18.5 42 24
002F1FA1 2019-06-01 13:22:15 17.6 40 24.7
002F1FA1 2019-06-01 12:13:48 17.2 39 25.2
002F1FA1 2019-06-01 11:05:22 17.2 37 25.4
002F1FA1 2019-06-01 09:56:52 17.4 35 25.8
002F1FA1 2019-06-01 08:48:22 18.2 35 26
002F1FA1 2019-06-01 07:39:54 18.5 34 26.4
002F1FA1 2019-06-01 06:31:24 18.7 33 26.7
002F1FA1 2019-06-01 05:22:53 18.7 32 27
002F1FA1 2019-06-01 04:14:24 18.7 31 27.3
002F1FA1 2019-06-01 03:05:56 18.7 30 27.6
002F1FA1 2019-06-01 01:57:27 18.5 30 27.9
002F1FA1 2019-06-01 00:48:56 18.5 29 28
002F1FA1 2019-05-31 23:40:30 18.6 28 28.2
002F1FA1 2019-05-31 22:32:03 18.9 28 28.4
002F1FA1 2019-05-31 21:23:35 19.3 29 28.5
002F1FA1 2019-05-31 20:15:06 19.7 30 28.4
002F1FA1 2019-05-31 19:06:38 19.9 32 28.5
002F1FA1 2019-05-31 17:58:14 20.2 33 28.6
002F1FA1 2019-05-31 16:49:51 21 34 28.6
002F1FA1 2019-05-31 15:41:31 21.3 36 28.8
002F1FA1 2019-05-31 14:33:10 20.9 36 28.8
002F1FA1 2019-05-31 13:24:47 21 38 28.8
002F1FA1 2019-05-31 12:16:22 21.1 38 28.9
002F1FA1 2019-05-31 11:07:59 21.2 38 28.8
002F1FA1 2019-05-31 09:59:36 21 37 28.9
002F1FA1 2019-05-31 08:51:13 20.9 36 28.9
002F1FA1 2019-05-31 07:42:49 20.8 35 28.9
002F1FA1 2019-05-31 06:34:25 20.7 35 29.1
002F1FA1 2019-05-31 05:26:02 20.6 35 29.1
002F1FA1 2019-05-31 04:17:36 20.7 35 29
002F1FA1 2019-05-31 03:09:12 20.6 35 28.9
002F1FA1 2019-05-31 02:00:46 20.6 35 28.9
002F1FA1 2019-05-31 00:52:23 20.6 35 28.9
002F1FA1 2019-05-30 23:44:01 20.6 35 28.9
002F1FA1 2019-05-30 22:35:36 20.6 35 29
002F1FA1 2019-05-30 21:27:13 20.4 35 29
002F1FA1 2019-05-30 20:18:52 20.4 36 28.9
002F1FA1 2019-05-30 19:10:26 20.2 36 28.9
002F1FA1 2019-05-30 18:02:02 20.2 36 28.9
002F1FA1 2019-05-30 16:53:39 20.2 37 29.1
002F1FA1 2019-05-30 15:45:17 20.2 37 29
002F1FA1 2019-05-30 14:36:52 20.3 38 29.1
002F1FA1 2019-05-30 13:28:28 20.4 39 29.3
002F1FA1 2019-05-30 12:20:02 20.6 39 29.2
002F1FA1 2019-05-30 11:11:43 20.6 39 29.1
002F1FA1 2019-05-30 10:03:22 20.6 40 29
002F1FA1 2019-05-30 08:54:59 20.6 40 28.9
002F1FA1 2019-05-30 07:46:36 20.6 40 29
002F1FA1 2019-05-30 06:38:13 20.6 41 29
002F1FA1 2019-05-30 05:29:53 20.6 41 28.9
002F1FA1 2019-05-30 04:21:29 20.8 41 28.9
002F1FA1 2019-05-30 03:13:06 20.8 42 28.9
002F1FA1 2019-05-30 02:04:45 20.8 42 28.8
002F1FA1 2019-05-30 00:56:23 20.9 43 28.7
002F1FA1 2019-05-29 23:47:59 20.8 43 28.8
002F1FA1 2019-05-29 22:39:34 20.8 44 28.9
002F1FA1 2019-05-29 21:31:09 20.9 44 28.8
002F1FA1 2019-05-29 20:22:43 20.8 45 28.7
002F1FA1 2019-05-29 19:14:19 20.9 46 28.7
002F1FA1 2019-05-29 18:05:56 21.3 47 28.6
002F1FA1 2019-05-29 16:57:36 21.7 48 28.5
002F1FA1 2019-05-29 15:49:14 22.1 48 28.6
002F1FA1 2019-05-29 14:40:52 22.1 46 28.7
002F1FA1 2019-05-29 13:32:27 21.9 48 28.6
002F1FA1 2019-05-29 12:24:02 21.8 48 28.6
002F1FA1 2019-05-29 11:15:39 21.5 50 28.6
002F1FA1 2019-05-29 10:07:14 21.2 51 28.6
002F1FA1 2019-05-29 08:58:47 21 50 28.5
002F1FA1 2019-05-29 07:50:23 21.1 49 28.5
002F1FA1 2019-05-29 06:41:57 21.3 47 28.6
002F1FA1 2019-05-29 05:33:28 21.3 47 28.6
002F1FA1 2019-05-29 04:25:01 21.3 47 28.7
002F1FA1 2019-05-29 03:16:36 21.3 47 28.7
002F1FA1 2019-05-29 02:08:10 21.3 47 28.7
002F1FA1 2019-05-29 00:59:42 21.3 47 28.8
002F1FA1 2019-05-28 23:51:16 21.3 47 28.7
002F1FA1 2019-05-28 22:42:51 21.3 47 28.7
002F1FA1 2019-05-28 21:34:26 21.4 46 28.7
002F1FA1 2019-05-28 20:26:00 21.5 46 28.7
002F1FA1 2019-05-28 19:17:36 21.7 46 28.7
002F1FA1 2019-05-28 18:09:12 21.7 45 28.7
002F1FA1 2019-05-28 17:00:47 22 46 28.6
002F1FA1 2019-05-28 15:52:25 22.1 46 28.7
002F1FA1 2019-05-28 14:44:04 22 46 28.7
002F1FA1 2019-05-28 13:35:38 21.8 46 28.7
002F1FA1 2019-05-28 12:27:12 21.5 46 28.7
002F1FA1 2019-05-28 11:18:51 21.3 46 28.7
002F1FA1 2019-05-28 10:10:24 21.2 46 28.7
002F1FA1 2019-05-28 09:01:59 21 47 28.6
002F1FA1 2019-05-28 07:53:33 21 45 28.6
002F1FA1 2019-05-28 06:45:09 21.2 43 28.6
002F1FA1 2019-05-28 05:36:42 21.3 43 28.5
002F1FA1 2019-05-28 04:28:17 21.3 42 28.6
002F1FA1 2019-05-28 03:19:54 21.3 42 28.6
002F1FA1 2019-05-28 02:11:31 21.3 41 28.5
002F1FA1 2019-05-28 01:03:06 21.3 41 28.7
002F1FA1 2019-05-27 23:54:40 21.3 41 28.7
002F1FA1 2019-05-27 22:46:15 21.5 41 28.5
002F1FA1 2019-05-27 21:37:50 21.7 41 28.5
002F1FA1 2019-05-27 20:29:26 21.7 40 28.3
002F1FA1 2019-05-27 19:21:01 21.6 40 28.3
002F1FA1 2019-05-27 18:12:36 21.5 38 28.4
002F1FA1 2019-05-27 17:04:10 21.7 42 28.6
002F1FA1 2019-05-27 15:55:46 21.5 43 28.6
002F1FA1 2019-05-27 14:47:18 21.3 43 28
002F1FA1 2019-05-27 13:38:50 21.3 45 28.8
002F1FA1 2019-05-27 12:30:24 21.3 45 30
002F1FA1 2019-05-27 11:22:00 21.6 49 0